Regional Weather Roundup
Issued by NWS

Home | Current Version | Previous Version | Text Only | Print | Product List | Glossary On
Versions: 1 2 3 4 5 6 7 8 9 10 11 12 13 14 15 16 17 18 19 20 21 22 23 24 25 26 27 28 29 30 31 32 33 34 35 36 37 38 39 40 41 42 43 44 45 46 47 48 49 50
000
ASUS44 KOUN 290610
RWROK

WEATHER ROUNDUP FOR OKLAHOMA
NATIONAL WEATHER SERVICE NORMAN OK
100 AM CDT SUN MAR 29 2015

NOTE: "FAIR" INDICATES FEW OR NO CLOUDS BELOW 12,000 FEET WITH NO
      SIGNIFICANT WEATHER AND/OR OBSTRUCTIONS TO VISIBILITY.

OKZ001>007-009>012-014-015-017-290700-
NORTHWEST OKLAHOMA AND THE PANHANDLE

CITY           SKY/WX    TMP DP  RH WIND       PRES   REMARKS
GAGE           CLEAR     60  47  61 S17       29.93F
6HR MIN TEMP:  58; 6HR MAX TEMP:  81;

GUYMON         CLEAR     58  34  40 S12       29.91F
ENID/WOODRING  CLEAR     52  45  76 SE10      29.97S
$$

OKZ016-021>023-033>039-044-045-290700-
SOUTHWEST OKLAHOMA

CITY           SKY/WX    TMP DP  RH WIND       PRES   REMARKS
LAWTON/REGL    CLEAR     61  48  62 E10       29.96F
6HR MIN TEMP:  61; 6HR MAX TEMP:  77;

LAWTON/FT SILL CLEAR     64  49  58 SE15      29.94F
FREDERICK      CLEAR     59  49  69 E13       29.92F
CLINTON        CLEAR     53  45  74 SE7       29.98F
HOBART         CLEAR     58  46  64 E7        29.96F
ALTUS AFB      CLEAR     60  50  69 E10       29.94F
$$

OKZ018>020-024>031-290700-
CENTRAL OKLAHOMA

CITY           SKY/WX    TMP DP  RH WIND       PRES   REMARKS
OKLAHOMA CITY  CLEAR     59  45  59 SE13      29.99F
6HR MIN TEMP:  58; 6HR MAX TEMP:  75;

OKC/WILEY POST CLEAR     62  45  53 SE17      29.98F
OKC/TINKER AFB CLEAR     60  45  57 SE12      29.99F
STILLWATER     CLEAR     52  43  71 SE14      30.01F
GUTHRIE        CLEAR     55  45  68 SE13G21   29.99F
$$

OKZ008-013-054>072-290700-
NORTHEAST OKLAHOMA

CITY           SKY/WX    TMP DP  RH WIND       PRES   REMARKS
TULSA          CLEAR     50  43  77 SE15      30.05F
6HR MIN TEMP:  49; 6HR MAX TEMP:  66;

TULSA/JONES    CLEAR     49  40  71 S8G18     30.07F
PONCA CITY     CLEAR     54  42  64 SE15      29.99F
BARTLESVILLE   CLEAR     49  41  74 S9        30.06F
MUSKOGEE       CLEAR     47  38  71 SE18      30.11S
$$

OKZ032-040>043-046>053-073>077-290700-
SOUTH CENTRAL/SOUTHEAST OKLAHOMA

CITY           SKY/WX    TMP DP  RH WIND       PRES   REMARKS
ARDMORE/DWNTWN CLEAR     61  46  59 SE9       30.03S
MCALESTER      PTCLDY    52  43  71 E6        30.09R
$$



USA.gov is the U.S. government's official web portal to all federal, state and local government web resources and services.